Regional Weather Roundup
Issued by NWS

Home | Current Version | Previous Version | Text Only | Print | Product List | Glossary Off
Versions: 1 2 3 4 5 6 7 8 9 10 11 12 13 14 15 16 17 18 19 20 21 22 23 24 25 26 27 28 29 30 31 32 33 34 35 36 37 38 39 40 41 42 43 44 45 46 47 48 49 50

000
ASUS43 KLMK 280402
RWRKY
KENTUCKY REGIONAL WEATHER ROUNDUP
NATIONAL WEATHER SERVICE LOUISVILLE KY
1200 AM EDT THU APR 28 2016

NOTE "FAIR" INDICATES FEW OR NO CLOUDS BELOW 12,000 FEET
WITH NO SIGNIFICANT WEATHER AND/OR OBSTRUCTIONS TO VISIBILITY.

KYZ001>023-026-027-061>063-070>075-280500-
WESTERN AND SOUTH CENTRAL KENTUCKY

CITY           SKY/WX    TMP DP  RH WIND       PRES   REMARKS
PADUCAH        CLEAR     66  61  84 S3        29.72S
HENDERSON      CLOUDY    64  57  77 SE8       29.74S
OWENSBORO      MOCLDY    63  63 100 SE8       29.77S
HOPKINSVILLE   CLEAR     64  62  95 SE1       29.75F
BOWLING GREEN  CLOUDY    65  63  93 E6        29.79F
GLASGOW        NOT AVBL
$$

KYZ024-025-028>034-038-045-046-053-280500-
NORTH CENTRAL KENTUCKY

CITY           SKY/WX    TMP DP  RH WIND       PRES   REMARKS
LOUISVILLE/SDF LGT RAIN  64  61  90 SE6       29.80S
LOUISVILLE/LOU CLOUDY    62  61  96 S3        29.81R
FORT KNOX      LGT RAIN  61  61  99 E5        29.79S
$$

KYZ035>037-039>044-047>052-055>060-089>105-280500-
NORTHEAST KENTUCKY

CITY           SKY/WX    TMP DP  RH WIND       PRES   REMARKS
LEXINGTON      TSTM      61  59  93 W7        29.86R FOG
COVINGTON      TSTM      60  58  92 SE5       29.85R FOG
FRANKFORT      RAIN      62  59  90 N3        29.82F FOG
$$

KYZ054-064>069-076>088-106>120-280500-
SOUTHEAST KENTUCKY

CITY           SKY/WX    TMP DP  RH WIND       PRES   REMARKS
JACKSON        RAIN      63  58  83 SE13G18   29.81F
LONDON         CLOUDY    63  61  93 SE3       29.82R
SOMERSET       NOT AVBL
MIDDLESBORO    CLOUDY    64  61  91 CALM      29.84F
MONTICELLO     LGT RAIN  63  61  93 W3        29.86F
$$





USA.gov is the U.S. government's official web portal to all federal, state and local government web resources and services.